Time,TemperatureF,DewpointF,PressureIn,WindDirection,WindDirectionDegrees,WindSpeedMPH,WindSpeedGustMPH,Humidity,HourlyPrecipIn,Conditions,Clouds,dailyrainin,SoftwareType,DateUTC
2013-09-02 00:01:00,61.2,54.0,29.95,NE,45,0.0,2.0,77,0.00,,,0.00,WUHU216HW,2013-09-02 05:01:00,
2013-09-02 00:06:00,60.8,53.6,29.95,ESE,113,0.4,1.3,77,0.00,,,0.00,WUHU216HW,2013-09-02 05:06:00,
2013-09-02 00:11:00,60.5,53.6,29.95,WNW,293,0.4,1.6,78,0.00,,,0.00,WUHU216HW,2013-09-02 05:11:00,
2013-09-02 00:16:00,60.1,53.6,29.95,NW,315,0.9,1.6,79,0.00,,,0.00,WUHU216HW,2013-09-02 05:16:00,
2013-09-02 00:21:00,59.8,53.3,29.95,West,270,1.3,1.6,79,0.00,,,0.00,WUHU216HW,2013-09-02 05:21:00,
2013-09-02 00:26:00,59.6,53.1,29.95,SSE,158,0.4,1.6,79,0.00,,,0.00,WUHU216HW,2013-09-02 05:26:00,
2013-09-02 00:31:00,59.4,53.3,29.95,NNW,338,0.4,2.0,80,0.00,,,0.00,WUHU216HW,2013-09-02 05:31:00,
2013-09-02 00:36:00,59.0,52.9,29.95,SSW,203,0.4,2.0,80,0.00,,,0.00,WUHU216HW,2013-09-02 05:36:00,
2013-09-02 00:41:00,58.9,52.7,29.95,ESE,113,0.4,1.1,80,0.00,,,0.00,WUHU216HW,2013-09-02 05:41:00,
2013-09-02 00:46:00,58.7,52.6,29.95,NW,315,0.4,1.1,80,0.00,,,0.00,WUHU216HW,2013-09-02 05:46:00,
2013-09-02 00:51:00,58.3,52.2,29.95,ESE,113,0.7,1.1,80,0.00,,,0.00,WUHU216HW,2013-09-02 05:51:00,
2013-09-02 00:56:00,58.1,52.0,29.96,WNW,293,0.7,1.1,80,0.00,,,0.00,WUHU216HW,2013-09-02 05:56:00,
2013-09-02 01:01:00,58.1,52.4,29.96,NNE,23,0.4,2.5,81,0.00,,,0.00,WUHU216HW,2013-09-02 06:01:00,
2013-09-02 01:06:00,58.0,52.2,29.96,ESE,113,0.9,2.5,81,0.00,,,0.00,WUHU216HW,2013-09-02 06:06:00,
2013-09-02 01:11:00,57.6,51.9,29.96,WNW,293,0.7,1.6,81,0.00,,,0.00,WUHU216HW,2013-09-02 06:11:00,
2013-09-02 01:16:00,57.4,51.7,29.96,NNE,23,0.4,1.3,81,0.00,,,0.00,WUHU216HW,2013-09-02 06:16:00,
2013-09-02 01:21:00,57.2,51.5,29.96,ESE,113,0.9,1.3,81,0.00,,,0.00,WUHU216HW,2013-09-02 06:21:00,
2013-09-02 01:26:00,57.1,51.6,29.96,WNW,293,0.4,0.9,82,0.00,,,0.00,WUHU216HW,2013-09-02 06:26:00,
2013-09-02 01:31:00,56.9,51.4,29.96,East,90,0.9,0.9,82,0.00,,,0.00,WUHU216HW,2013-09-02 06:31:00,
2013-09-02 01:36:00,56.9,51.4,29.96,ESE,113,0.4,0.9,82,0.00,,,0.00,WUHU216HW,2013-09-02 06:36:00,
2013-09-02 01:41:00,56.5,51.0,29.96,ESE,113,0.2,0.9,82,0.00,,,0.00,WUHU216HW,2013-09-02 06:41:00,
2013-09-02 01:46:00,56.5,51.0,29.96,East,90,0.0,1.1,82,0.00,,,0.00,WUHU216HW,2013-09-02 06:46:00,
2013-09-02 01:51:00,56.3,50.9,29.97,WSW,248,0.0,1.1,82,0.00,,,0.00,WUHU216HW,2013-09-02 06:51:00,
2013-09-02 01:56:00,56.2,50.7,29.97,NE,45,0.4,1.1,82,0.00,,,0.00,WUHU216HW,2013-09-02 06:56:00,
2013-09-02 02:01:00,55.8,50.3,29.96,WNW,293,0.2,1.1,82,0.00,,,0.00,WUHU216HW,2013-09-02 07:01:00,
2013-09-02 02:06:00,55.6,50.1,29.96,WNW,293,0.0,0.4,82,0.00,,,0.00,WUHU216HW,2013-09-02 07:06:00,
2013-09-02 02:11:00,55.3,49.8,29.96,West,270,0.4,0.4,82,0.00,,,0.00,WUHU216HW,2013-09-02 07:11:00,
2013-09-02 02:16:00,55.1,50.0,29.96,WSW,248,0.0,0.4,83,0.00,,,0.00,WUHU216HW,2013-09-02 07:16:00,
2013-09-02 02:21:00,54.9,49.8,29.96,SSE,158,0.4,0.4,83,0.00,,,0.00,WUHU216HW,2013-09-02 07:21:00,
2013-09-02 02:26:00,54.7,49.6,29.96,SE,135,0.0,0.4,83,0.00,,,0.00,WUHU216HW,2013-09-02 07:26:00,
2013-09-02 02:31:00,54.5,49.8,29.96,SE,135,0.0,0.4,84,0.00,,,0.00,WUHU216HW,2013-09-02 07:31:00,
2013-09-02 02:36:00,54.2,49.4,29.96,SE,135,0.0,0.2,84,0.00,,,0.00,WUHU216HW,2013-09-02 07:36:00,
2013-09-02 02:41:00,53.6,49.0,29.97,SE,135,0.0,0.0,84,0.00,,,0.00,WUHU216HW,2013-09-02 07:41:00,
2013-09-02 02:46:00,53.3,48.6,29.96,SE,135,0.0,0.2,84,0.00,,,0.00,WUHU216HW,2013-09-02 07:46:00,
2013-09-02 02:51:00,52.9,48.3,29.96,SE,135,0.0,0.2,84,0.00,,,0.00,WUHU216HW,2013-09-02 07:51:00,
2013-09-02 02:56:00,52.6,47.9,29.97,SE,135,0.0,0.0,84,0.00,,,0.00,WUHU216HW,2013-09-02 07:56:00,
2013-09-02 03:01:00,52.2,47.8,29.97,SE,135,0.0,0.0,85,0.00,,,0.00,WUHU216HW,2013-09-02 08:01:00,
2013-09-02 03:06:00,52.0,47.6,29.97,SE,135,0.0,0.0,85,0.00,,,0.00,WUHU216HW,2013-09-02 08:06:00,
2013-09-02 03:11:00,51.8,47.7,29.97,SSE,158,0.0,0.0,86,0.00,,,0.00,WUHU216HW,2013-09-02 08:11:00,
2013-09-02 03:16:00,51.5,47.3,29.97,SSE,158,0.0,0.0,86,0.00,,,0.00,WUHU216HW,2013-09-02 08:16:00,
2013-09-02 03:21:00,51.3,47.2,29.97,SSE,158,0.0,0.2,86,0.00,,,0.00,WUHU216HW,2013-09-02 08:21:00,
2013-09-02 03:26:00,51.5,47.7,29.97,West,270,1.1,1.1,87,0.00,,,0.00,WUHU216HW,2013-09-02 08:26:00,
2013-09-02 03:31:00,51.8,48.1,29.97,WSW,248,0.4,1.1,87,0.00,,,0.00,WUHU216HW,2013-09-02 08:31:00,
2013-09-02 03:36:00,52.2,48.4,29.97,ENE,68,0.4,0.7,87,0.00,,,0.00,WUHU216HW,2013-09-02 08:36:00,
2013-09-02 03:41:00,52.2,48.4,29.97,East,90,0.4,0.7,87,0.00,,,0.00,WUHU216HW,2013-09-02 08:41:00,
2013-09-02 03:46:00,52.2,48.4,29.97,ESE,113,0.2,1.1,87,0.00,,,0.00,WUHU216HW,2013-09-02 08:46:00,
2013-09-02 03:51:00,52.2,48.4,29.97,East,90,0.2,1.1,87,0.00,,,0.00,WUHU216HW,2013-09-02 08:51:00,
2013-09-02 03:56:00,52.2,48.7,29.97,ENE,68,0.4,1.1,88,0.00,,,0.00,WUHU216HW,2013-09-02 08:56:00,
2013-09-02 04:01:00,52.4,48.9,29.98,SW,225,0.9,1.1,88,0.00,,,0.00,WUHU216HW,2013-09-02 09:01:00,
2013-09-02 04:06:00,52.6,48.8,29.98,NE,45,0.4,1.1,87,0.00,,,0.00,WUHU216HW,2013-09-02 09:06:00,
2013-09-02 04:11:00,52.6,48.8,29.98,NE,45,0.0,1.1,87,0.00,,,0.00,WUHU216HW,2013-09-02 09:11:00,
2013-09-02 04:16:00,52.6,49.1,29.98,SW,225,0.4,0.7,88,0.00,,,0.00,WUHU216HW,2013-09-02 09:16:00,
2013-09-02 04:21:00,52.6,48.8,29.98,ESE,113,0.4,1.1,87,0.00,,,0.00,WUHU216HW,2013-09-02 09:21:00,
2013-09-02 04:26:00,52.4,48.9,29.98,WSW,248,0.4,1.8,88,0.00,,,0.00,WUHU216HW,2013-09-02 09:26:00,
2013-09-02 04:31:00,52.6,49.1,29.98,East,90,0.2,1.8,88,0.00,,,0.00,WUHU216HW,2013-09-02 09:31:00,
2013-09-02 04:36:00,52.4,48.6,29.98,SSE,158,0.4,1.1,87,0.00,,,0.00,WUHU216HW,2013-09-02 09:36:00,
2013-09-02 04:41:00,52.4,48.9,29.98,NW,315,0.7,1.3,88,0.00,,,0.00,WUHU216HW,2013-09-02 09:41:00,
2013-09-02 04:47:00,52.4,48.9,29.98,NNW,338,0.0,1.3,88,0.00,,,0.00,WUHU216HW,2013-09-02 09:47:00,
2013-09-02 04:52:00,52.2,48.4,29.98,NNE,23,0.2,1.1,87,0.00,,,0.00,WUHU216HW,2013-09-02 09:52:00,
2013-09-02 04:57:00,52.2,48.7,29.99,WSW,248,1.1,1.1,88,0.00,,,0.00,WUHU216HW,2013-09-02 09:57:00,
2013-09-02 05:02:00,52.2,48.7,29.99,NNE,23,0.9,2.0,88,0.00,,,0.00,WUHU216HW,2013-09-02 10:02:00,
2013-09-02 05:07:00,52.2,48.7,29.99,North,0,0.4,2.0,88,0.00,,,0.00,WUHU216HW,2013-09-02 10:07:00,
2013-09-02 05:12:00,52.0,48.5,29.99,NNW,338,0.0,1.3,88,0.00,,,0.00,WUHU216HW,2013-09-02 10:12:00,
2013-09-02 05:17:00,52.0,48.5,29.99,NW,315,0.0,1.3,88,0.00,,,0.00,WUHU216HW,2013-09-02 10:17:00,
2013-09-02 05:22:00,52.0,48.5,30.00,West,270,0.9,1.1,88,0.00,,,0.00,WUHU216HW,2013-09-02 10:22:00,
2013-09-02 05:27:00,52.0,48.5,29.99,NNW,338,0.0,0.9,88,0.00,,,0.00,WUHU216HW,2013-09-02 10:27:00,
2013-09-02 05:32:00,51.7,48.2,29.99,ENE,68,0.0,0.9,88,0.00,,,0.00,WUHU216HW,2013-09-02 10:32:00,
2013-09-02 05:37:00,51.5,48.0,29.99,East,90,0.0,0.4,88,0.00,,,0.00,WUHU216HW,2013-09-02 10:37:00,
2013-09-02 05:42:00,51.5,48.0,30.00,NW,315,0.2,1.1,88,0.00,,,0.00,WUHU216HW,2013-09-02 10:42:00,
2013-09-02 05:47:00,51.3,47.8,30.00,WNW,293,0.0,1.1,88,0.00,,,0.00,WUHU216HW,2013-09-02 10:47:00,
2013-09-02 05:52:00,51.3,47.8,30.00,NE,45,0.2,0.4,88,0.00,,,0.00,WUHU216HW,2013-09-02 10:52:00,
2013-09-02 05:57:00,51.1,47.6,30.00,West,270,0.0,0.4,88,0.00,,,0.00,WUHU216HW,2013-09-02 10:57:00,
2013-09-02 06:02:00,51.1,47.6,30.00,WSW,248,0.0,0.4,88,0.00,,,0.00,WUHU216HW,2013-09-02 11:02:00,
2013-09-02 06:07:00,50.9,47.4,30.00,West,270,0.2,0.4,88,0.00,,,0.00,WUHU216HW,2013-09-02 11:07:00,
2013-09-02 06:12:00,50.8,47.3,30.00,WNW,293,0.0,0.9,88,0.00,,,0.00,WUHU216HW,2013-09-02 11:12:00,
2013-09-02 06:17:00,50.8,47.3,30.00,NE,45,0.0,0.9,88,0.00,,,0.00,WUHU216HW,2013-09-02 11:17:00,
2013-09-02 06:22:00,50.8,47.3,30.00,West,270,0.2,0.9,88,0.00,,,0.00,WUHU216HW,2013-09-02 11:22:00,
2013-09-02 06:27:00,50.8,47.3,30.00,North,0,0.0,1.1,88,0.00,,,0.00,WUHU216HW,2013-09-02 11:27:00,
2013-09-02 06:32:00,50.6,47.1,30.00,NW,315,0.2,1.1,88,0.00,,,0.00,WUHU216HW,2013-09-02 11:32:00,
2013-09-02 06:37:00,50.6,47.1,30.01,West,270,0.0,0.7,88,0.00,,,0.00,WUHU216HW,2013-09-02 11:37:00,
2013-09-02 06:42:00,50.6,47.1,30.01,NW,315,0.0,0.7,88,0.00,,,0.00,WUHU216HW,2013-09-02 11:42:00,
2013-09-02 06:47:00,50.6,47.1,30.01,WNW,293,0.4,0.4,88,0.00,,,0.00,WUHU216HW,2013-09-02 11:47:00,
2013-09-02 06:52:00,50.6,47.7,30.02,West,270,1.1,1.3,90,0.00,,,0.00,WUHU216HW,2013-09-02 11:52:00,
2013-09-02 06:57:00,50.6,47.4,30.02,NNW,338,0.2,1.3,89,0.00,,,0.00,WUHU216HW,2013-09-02 11:57:00,
2013-09-02 07:02:00,50.6,47.4,30.02,West,270,0.0,1.1,89,0.00,,,0.00,WUHU216HW,2013-09-02 12:02:00,
2013-09-02 07:07:00,50.6,47.4,30.02,ENE,68,0.2,1.1,89,0.00,,,0.00,WUHU216HW,2013-09-02 12:07:00,
2013-09-02 07:12:00,50.6,47.4,30.02,ENE,68,0.0,1.1,89,0.00,,,0.00,WUHU216HW,2013-09-02 12:12:00,
2013-09-02 07:17:00,51.1,48.2,30.02,WSW,248,0.0,1.3,90,0.00,,,0.00,WUHU216HW,2013-09-02 12:17:00,
2013-09-02 07:22:00,51.3,48.7,30.03,West,270,1.3,1.8,91,0.00,,,0.00,WUHU216HW,2013-09-02 12:22:00,
2013-09-02 07:27:00,51.7,49.1,30.03,WNW,293,0.4,1.8,91,0.00,,,0.00,WUHU216HW,2013-09-02 12:27:00,
2013-09-02 07:32:00,52.0,49.4,30.03,WSW,248,0.0,1.3,91,0.00,,,0.00,WUHU216HW,2013-09-02 12:32:00,
2013-09-02 07:37:00,52.4,49.8,30.03,West,270,0.0,1.1,91,0.00,,,0.00,WUHU216HW,2013-09-02 12:37:00,
2013-09-02 07:42:00,52.7,50.1,30.03,WNW,293,0.9,1.3,91,0.00,,,0.00,WUHU216HW,2013-09-02 12:42:00,
2013-09-02 07:47:00,53.1,50.5,30.03,West,270,0.0,1.3,91,0.00,,,0.00,WUHU216HW,2013-09-02 12:47:00,
2013-09-02 07:52:00,53.6,50.8,30.03,WNW,293,0.0,1.1,90,0.00,,,0.00,WUHU216HW,2013-09-02 12:52:00,
2013-09-02 07:57:00,53.8,50.9,30.03,NE,45,0.0,1.1,90,0.00,,,0.00,WUHU216HW,2013-09-02 12:57:00,
2013-09-02 08:02:00,54.4,51.2,30.04,NW,315,0.4,1.8,89,0.00,,,0.00,WUHU216HW,2013-09-02 13:02:00,
2013-09-02 08:07:00,54.7,51.5,30.03,SE,135,0.2,1.8,89,0.00,,,0.00,WUHU216HW,2013-09-02 13:07:00,
2013-09-02 08:12:00,55.1,51.8,30.03,NNW,338,0.4,0.9,89,0.00,,,0.00,WUHU216HW,2013-09-02 13:12:00,
2013-09-02 08:17:00,55.4,51.9,30.03,NNW,338,0.2,1.1,88,0.00,,,0.00,WUHU216HW,2013-09-02 13:17:00,
2013-09-02 08:22:00,55.8,52.3,30.03,ESE,113,0.0,1.1,88,0.00,,,0.00,WUHU216HW,2013-09-02 13:22:00,
2013-09-02 08:27:00,56.2,52.7,30.04,East,90,0.2,0.7,88,0.00,,,0.00,WUHU216HW,2013-09-02 13:27:00,
2013-09-02 08:32:00,56.3,52.5,30.04,NW,315,0.9,1.8,87,0.00,,,0.00,WUHU216HW,2013-09-02 13:32:00,
2013-09-02 08:37:00,56.7,52.8,30.04,NW,315,0.4,1.8,87,0.00,,,0.00,WUHU216HW,2013-09-02 13:37:00,
2013-09-02 08:42:00,56.9,52.8,30.04,East,90,0.2,1.1,86,0.00,,,0.00,WUHU216HW,2013-09-02 13:42:00,
2013-09-02 08:47:00,57.2,53.1,30.04,ESE,113,1.3,1.3,86,0.00,,,0.00,WUHU216HW,2013-09-02 13:47:00,
2013-09-02 08:52:00,57.4,53.6,30.04,WNW,293,0.4,1.3,87,0.00,,,0.00,WUHU216HW,2013-09-02 13:52:00,
2013-09-02 08:57:00,57.8,53.7,30.04,South,180,1.1,1.1,86,0.00,,,0.00,WUHU216HW,2013-09-02 13:57:00,
2013-09-02 09:02:00,58.0,53.8,30.04,NE,45,0.9,1.1,86,0.00,,,0.00,WUHU216HW,2013-09-02 14:02:00,
2013-09-02 09:07:00,58.1,53.6,30.04,SE,135,0.4,1.8,85,0.00,,,0.00,WUHU216HW,2013-09-02 14:07:00,
2013-09-02 09:12:00,58.3,53.5,30.04,SSE,158,0.4,2.0,84,0.00,,,0.00,WUHU216HW,2013-09-02 14:12:00,
2013-09-02 09:17:00,58.5,53.4,30.04,SSE,158,1.1,2.5,83,0.00,,,0.00,WUHU216HW,2013-09-02 14:17:00,
2013-09-02 09:22:00,58.5,53.4,30.05,SE,135,0.4,2.7,83,0.00,,,0.00,WUHU216HW,2013-09-02 14:22:00,
2013-09-02 09:27:00,58.7,53.6,30.05,West,270,0.2,2.7,83,0.00,,,0.00,WUHU216HW,2013-09-02 14:27:00,
2013-09-02 09:32:00,59.0,53.9,30.05,North,0,0.4,1.8,83,0.00,,,0.00,WUHU216HW,2013-09-02 14:32:00,
2013-09-02 09:37:00,59.4,53.9,30.05,ESE,113,0.2,1.1,82,0.00,,,0.00,WUHU216HW,2013-09-02 14:37:00,
2013-09-02 09:42:00,59.6,53.8,30.05,SSE,158,0.7,2.0,81,0.00,,,0.00,WUHU216HW,2013-09-02 14:42:00,
2013-09-02 09:47:00,59.6,53.8,30.05,SE,135,0.9,2.2,81,0.00,,,0.00,WUHU216HW,2013-09-02 14:47:00,
2013-09-02 09:52:00,59.8,54.0,30.05,SSE,158,1.1,2.2,81,0.00,,,0.00,WUHU216HW,2013-09-02 14:52:00,
2013-09-02 09:57:00,60.3,54.2,30.05,NE,45,0.4,1.8,80,0.00,,,0.00,WUHU216HW,2013-09-02 14:57:00,
2013-09-02 10:02:00,60.5,54.0,30.05,East,90,1.8,1.8,79,0.00,,,0.00,WUHU216HW,2013-09-02 15:02:00,
2013-09-02 10:07:00,60.3,53.8,30.05,ESE,113,0.2,2.5,79,0.00,,,0.00,WUHU216HW,2013-09-02 15:07:00,
2013-09-02 10:12:00,60.1,53.6,30.05,ENE,68,1.1,2.5,79,0.00,,,0.00,WUHU216HW,2013-09-02 15:12:00,
2013-09-02 10:17:00,59.8,53.6,30.06,East,90,1.1,1.8,80,0.00,,,0.00,WUHU216HW,2013-09-02 15:17:00,
2013-09-02 10:22:00,59.6,53.8,30.05,SSW,203,0.7,1.8,81,0.00,,,0.00,WUHU216HW,2013-09-02 15:22:00,
2013-09-02 10:27:00,59.8,54.0,30.05,NNW,338,0.4,1.6,81,0.00,,,0.00,WUHU216HW,2013-09-02 15:27:00,
2013-09-02 10:32:00,60.1,54.4,30.06,NE,45,0.4,1.8,81,0.00,,,0.00,WUHU216HW,2013-09-02 15:32:00,
2013-09-02 10:37:00,60.3,54.2,30.06,West,270,1.1,2.5,80,0.00,,,0.00,WUHU216HW,2013-09-02 15:37:00,
2013-09-02 10:42:00,60.3,54.2,30.06,North,0,0.4,2.5,80,0.00,,,0.00,WUHU216HW,2013-09-02 15:42:00,
2013-09-02 10:47:00,60.1,54.0,30.06,SE,135,1.8,2.5,80,0.00,,,0.00,WUHU216HW,2013-09-02 15:47:00,
2013-09-02 10:52:00,59.9,53.8,30.06,ESE,113,0.9,2.5,80,0.00,,,0.00,WUHU216HW,2013-09-02 15:52:00,
2013-09-02 10:57:00,60.1,54.0,30.07,ESE,113,1.8,2.9,80,0.00,,,0.00,WUHU216HW,2013-09-02 15:57:00,
2013-09-02 11:02:00,60.3,53.8,30.06,East,90,0.9,2.9,79,0.00,,,0.00,WUHU216HW,2013-09-02 16:02:00,
2013-09-02 11:07:00,60.5,54.0,30.07,NNW,338,1.3,2.9,79,0.00,,,0.00,WUHU216HW,2013-09-02 16:07:00,
2013-09-02 11:12:00,60.5,54.0,30.06,WSW,248,1.6,2.7,79,0.00,,,0.00,WUHU216HW,2013-09-02 16:12:00,
2013-09-02 11:17:00,60.3,53.5,30.06,North,0,1.8,2.7,78,0.00,,,0.00,WUHU216HW,2013-09-02 16:17:00,
2013-09-02 11:22:00,60.3,53.5,30.06,NW,315,2.0,3.1,78,0.00,,,0.00,WUHU216HW,2013-09-02 16:22:00,
2013-09-02 11:27:00,60.5,53.6,30.06,WSW,248,4.0,4.0,78,0.00,,,0.00,WUHU216HW,2013-09-02 16:27:00,
2013-09-02 11:32:00,60.5,53.6,30.06,East,90,1.6,4.0,78,0.00,,,0.00,WUHU216HW,2013-09-02 16:32:00,
2013-09-02 11:37:00,60.8,54.0,30.06,South,180,2.5,4.0,78,0.00,,,0.00,WUHU216HW,2013-09-02 16:37:00,
2013-09-02 11:42:00,61.2,54.4,30.06,NNE,23,0.4,2.5,78,0.00,,,0.00,WUHU216HW,2013-09-02 16:42:00,
2013-09-02 11:47:00,61.7,53.7,30.06,West,270,1.3,2.5,75,0.00,,,0.00,WUHU216HW,2013-09-02 16:47:00,
2013-09-02 11:52:00,62.1,54.5,30.06,SSE,158,0.9,2.2,76,0.00,,,0.00,WUHU216HW,2013-09-02 16:52:00,
2013-09-02 11:57:00,62.6,54.5,30.06,WNW,293,0.9,2.7,75,0.00,,,0.00,WUHU216HW,2013-09-02 16:57:00,
2013-09-02 12:02:00,62.5,53.6,30.06,WNW,293,1.1,3.4,73,0.00,,,0.00,WUHU216HW,2013-09-02 17:02:00,
2013-09-02 12:07:00,62.6,54.2,30.06,East,90,0.4,3.4,74,0.00,,,0.00,WUHU216HW,2013-09-02 17:07:00,
2013-09-02 12:12:00,62.8,54.7,30.06,WSW,248,0.4,2.2,75,0.00,,,0.00,WUHU216HW,2013-09-02 17:12:00,
2013-09-02 12:17:00,62.6,53.8,30.06,East,90,1.3,3.4,73,0.00,,,0.00,WUHU216HW,2013-09-02 17:17:00,
2013-09-02 12:22:00,62.5,54.0,30.06,SE,135,0.9,3.4,74,0.00,,,0.00,WUHU216HW,2013-09-02 17:22:00,
2013-09-02 12:27:00,62.3,53.5,30.06,ENE,68,0.4,1.3,73,0.00,,,0.00,WUHU216HW,2013-09-02 17:27:00,
2013-09-02 12:32:00,62.3,53.5,30.06,WSW,248,0.4,1.3,73,0.00,,,0.00,WUHU216HW,2013-09-02 17:32:00,
2013-09-02 12:37:00,62.5,53.6,30.06,West,270,1.1,3.1,73,0.00,,,0.00,WUHU216HW,2013-09-02 17:37:00,
2013-09-02 12:42:00,62.6,53.8,30.06,West,270,1.1,3.1,73,0.00,,,0.00,WUHU216HW,2013-09-02 17:42:00,
2013-09-02 12:47:00,62.6,53.8,30.06,South,180,1.1,2.5,73,0.00,,,0.00,WUHU216HW,2013-09-02 17:47:00,
2013-09-02 12:52:00,62.6,53.8,30.05,SE,135,1.1,3.1,73,0.00,,,0.00,WUHU216HW,2013-09-02 17:52:00,
2013-09-02 12:57:00,62.8,54.4,30.05,NNW,338,0.7,3.1,74,0.00,,,0.00,WUHU216HW,2013-09-02 17:57:00,
2013-09-02 13:02:00,62.5,53.6,30.05,ESE,113,0.9,2.7,73,0.00,,,0.00,WUHU216HW,2013-09-02 18:02:00,
2013-09-02 13:07:00,62.3,53.5,30.05,ENE,68,0.9,2.7,73,0.00,,,0.00,WUHU216HW,2013-09-02 18:07:00,
2013-09-02 13:12:00,62.1,53.0,30.05,South,180,0.7,3.4,72,0.00,,,0.00,WUHU216HW,2013-09-02 18:12:00,
2013-09-02 13:17:00,62.1,53.4,30.05,ENE,68,0.0,3.4,73,0.00,,,0.00,WUHU216HW,2013-09-02 18:17:00,
2013-09-02 13:22:00,62.3,53.5,30.05,West,270,1.1,3.1,73,0.00,,,0.00,WUHU216HW,2013-09-02 18:22:00,
2013-09-02 13:27:00,63.0,54.5,30.05,NNW,338,0.0,2.0,74,0.00,,,0.00,WUHU216HW,2013-09-02 18:27:00,
2013-09-02 13:32:00,63.7,54.9,30.05,WSW,248,0.7,1.3,73,0.00,,,0.00,WUHU216HW,2013-09-02 18:32:00,
2013-09-02 13:37:00,63.7,54.9,30.05,SE,135,0.9,1.6,73,0.00,,,0.00,WUHU216HW,2013-09-02 18:37:00,
2013-09-02 13:42:00,64.1,54.9,30.05,East,90,0.4,1.8,72,0.00,,,0.00,WUHU216HW,2013-09-02 18:42:00,
2013-09-02 13:47:00,63.7,54.5,30.05,SSW,203,0.7,1.8,72,0.00,,,0.00,WUHU216HW,2013-09-02 18:47:00,
2013-09-02 13:52:00,63.7,54.5,30.05,SW,225,0.7,1.8,72,0.00,,,0.00,WUHU216HW,2013-09-02 18:52:00,
2013-09-02 13:57:00,63.5,53.6,30.04,WSW,248,2.0,2.9,70,0.00,,,0.00,WUHU216HW,2013-09-02 18:57:00,
2013-09-02 14:02:00,63.4,54.2,30.04,ESE,113,1.3,2.9,72,0.00,,,0.00,WUHU216HW,2013-09-02 19:02:00,
2013-09-02 14:07:00,63.7,54.2,30.04,NNW,338,2.2,2.2,71,0.00,,,0.00,WUHU216HW,2013-09-02 19:07:00,
2013-09-02 14:12:00,63.7,54.5,30.04,ESE,113,0.2,2.2,72,0.00,,,0.00,WUHU216HW,2013-09-02 19:12:00,
2013-09-02 14:17:00,63.7,53.8,30.04,WNW,293,1.3,2.9,70,0.00,,,0.00,WUHU216HW,2013-09-02 19:17:00,
2013-09-02 14:22:00,63.7,53.8,30.04,WSW,248,2.2,2.9,70,0.00,,,0.00,WUHU216HW,2013-09-02 19:22:00,
2013-09-02 14:27:00,64.1,53.7,30.04,West,270,0.7,2.5,69,0.00,,,0.00,WUHU216HW,2013-09-02 19:27:00,
2013-09-02 14:32:00,64.4,54.1,30.04,WNW,293,0.7,2.2,69,0.00,,,0.00,WUHU216HW,2013-09-02 19:32:00,
2013-09-02 14:37:00,65.2,55.2,30.04,WSW,248,0.0,2.2,70,0.00,,,0.00,WUHU216HW,2013-09-02 19:37:00,
2013-09-02 14:42:00,66.2,55.4,30.04,WNW,293,0.9,1.8,68,0.00,,,0.00,WUHU216HW,2013-09-02 19:42:00,
2013-09-02 14:47:00,66.6,54.8,30.04,WNW,293,1.3,1.8,66,0.00,,,0.00,WUHU216HW,2013-09-02 19:47:00,
2013-09-02 14:52:00,66.2,54.6,30.03,WNW,293,0.2,2.5,66,0.00,,,0.00,WUHU216HW,2013-09-02 19:52:00,
2013-09-02 14:57:00,65.9,53.7,30.04,WNW,293,1.8,2.5,65,0.00,,,0.00,WUHU216HW,2013-09-02 19:57:00,
2013-09-02 15:02:00,65.3,54.1,30.04,South,180,0.9,2.5,67,0.00,,,0.00,WUHU216HW,2013-09-02 20:02:00,
2013-09-02 15:07:00,65.9,54.5,30.04,NW,315,1.6,2.2,67,0.00,,,0.00,WUHU216HW,2013-09-02 20:07:00,
2013-09-02 15:12:00,65.5,54.3,30.04,NE,45,0.4,3.4,67,0.00,,,0.00,WUHU216HW,2013-09-02 20:12:00,
2013-09-02 15:17:00,65.5,54.3,30.04,East,90,0.4,3.4,67,0.00,,,0.00,WUHU216HW,2013-09-02 20:17:00,
2013-09-02 15:22:00,65.5,54.3,30.04,WNW,293,2.0,2.5,67,0.00,,,0.00,WUHU216HW,2013-09-02 20:22:00,
2013-09-02 15:27:00,65.0,54.2,30.03,West,270,0.4,2.5,68,0.00,,,0.00,WUHU216HW,2013-09-02 20:27:00,
2013-09-02 15:32:00,65.2,54.4,30.03,NE,45,0.4,2.2,68,0.00,,,0.00,WUHU216HW,2013-09-02 20:32:00,
2013-09-02 15:37:00,65.5,54.6,30.03,SW,225,0.9,2.2,68,0.00,,,0.00,WUHU216HW,2013-09-02 20:37:00,
2013-09-02 15:42:00,66.1,55.2,30.03,ESE,113,0.0,1.6,68,0.00,,,0.00,WUHU216HW,2013-09-02 20:42:00,
2013-09-02 15:47:00,66.6,54.8,30.03,NW,315,0.9,2.7,66,0.00,,,0.00,WUHU216HW,2013-09-02 20:47:00,
2013-09-02 15:52:00,66.8,54.2,30.02,WSW,248,0.7,3.6,64,0.00,,,0.00,WUHU216HW,2013-09-02 20:52:00,
2013-09-02 15:57:00,66.6,54.5,30.03,WSW,248,1.1,3.6,65,0.00,,,0.00,WUHU216HW,2013-09-02 20:57:00,
2013-09-02 16:02:00,66.2,53.6,30.03,West,270,1.8,2.7,64,0.00,,,0.00,WUHU216HW,2013-09-02 21:02:00,
2013-09-02 16:07:00,65.9,53.7,30.03,ESE,113,0.4,3.4,65,0.00,,,0.00,WUHU216HW,2013-09-02 21:07:00,
2013-09-02 16:12:00,65.9,53.7,30.03,West,270,1.3,3.4,65,0.00,,,0.00,WUHU216HW,2013-09-02 21:12:00,
2013-09-02 16:17:00,65.9,54.2,30.03,NNE,23,0.4,2.5,66,0.00,,,0.00,WUHU216HW,2013-09-02 21:17:00,
2013-09-02 16:22:00,66.1,54.4,30.02,West,270,0.7,1.6,66,0.00,,,0.00,WUHU216HW,2013-09-02 21:22:00,
2013-09-02 16:27:00,66.6,54.5,30.02,West,270,1.6,1.6,65,0.00,,,0.00,WUHU216HW,2013-09-02 21:27:00,
2013-09-02 16:32:00,67.0,54.8,30.02,East,90,0.0,1.8,65,0.00,,,0.00,WUHU216HW,2013-09-02 21:32:00,
2013-09-02 16:37:00,67.3,55.1,30.02,ENE,68,0.4,1.8,65,0.00,,,0.00,WUHU216HW,2013-09-02 21:37:00,
2013-09-02 16:42:00,68.0,55.8,30.02,SE,135,0.9,1.6,65,0.00,,,0.00,WUHU216HW,2013-09-02 21:42:00,
2013-09-02 16:47:00,68.2,54.7,30.02,SW,225,0.9,1.8,62,0.00,,,0.00,WUHU216HW,2013-09-02 21:47:00,
2013-09-02 16:52:00,68.4,55.3,30.02,South,180,0.4,1.8,63,0.00,,,0.00,WUHU216HW,2013-09-02 21:52:00,
2013-09-02 16:57:00,68.6,55.4,30.02,NNE,23,1.1,1.3,63,0.00,,,0.00,WUHU216HW,2013-09-02 21:57:00,
2013-09-02 17:02:00,68.4,54.9,30.02,SE,135,0.7,1.3,62,0.00,,,0.00,WUHU216HW,2013-09-02 22:02:00,
2013-09-02 17:07:00,68.4,55.3,30.02,SSE,158,0.2,1.1,63,0.00,,,0.00,WUHU216HW,2013-09-02 22:07:00,
2013-09-02 17:12:00,68.0,54.6,30.02,East,90,0.4,1.6,62,0.00,,,0.00,WUHU216HW,2013-09-02 22:12:00,
2013-09-02 17:17:00,67.5,54.0,30.02,West,270,0.2,1.6,62,0.00,,,0.00,WUHU216HW,2013-09-02 22:17:00,
2013-09-02 17:22:00,67.3,54.3,30.02,East,90,1.1,2.0,63,0.00,,,0.00,WUHU216HW,2013-09-02 22:22:00,
2013-09-02 17:27:00,67.1,54.6,30.02,SSW,203,0.9,2.0,64,0.00,,,0.00,WUHU216HW,2013-09-02 22:27:00,
2013-09-02 17:32:00,67.3,54.7,30.02,NNW,338,0.2,0.9,64,0.00,,,0.00,WUHU216HW,2013-09-02 22:32:00,
2013-09-02 17:37:00,67.3,54.3,30.02,SE,135,1.1,2.7,63,0.00,,,0.00,WUHU216HW,2013-09-02 22:37:00,
2013-09-02 17:42:00,67.0,54.4,30.02,ENE,68,0.4,2.7,64,0.00,,,0.00,WUHU216HW,2013-09-02 22:42:00,
2013-09-02 17:47:00,67.0,54.4,30.02,SSE,158,0.2,1.1,64,0.00,,,0.00,WUHU216HW,2013-09-02 22:47:00,
2013-09-02 17:52:00,67.0,54.4,30.02,West,270,0.7,1.1,64,0.00,,,0.00,WUHU216HW,2013-09-02 22:52:00,
2013-09-02 17:57:00,66.8,53.4,30.02,WSW,248,2.7,2.7,62,0.00,,,0.00,WUHU216HW,2013-09-02 22:57:00,
2013-09-02 18:02:00,66.2,53.3,30.01,WSW,248,1.6,2.7,63,0.00,,,0.00,WUHU216HW,2013-09-02 23:02:00,
2013-09-02 18:07:00,65.9,53.4,30.01,NNE,23,0.0,2.7,64,0.00,,,0.00,WUHU216HW,2013-09-02 23:07:00,
2013-09-02 18:12:00,65.9,53.7,30.01,WSW,248,0.0,2.0,65,0.00,,,0.00,WUHU216HW,2013-09-02 23:12:00,
2013-09-02 18:17:00,69.5,56.4,30.01,WNW,293,0.0,1.1,63,0.00,,,0.00,WUHU216HW,2013-09-02 23:17:00,
2013-09-02 18:22:00,72.4,56.2,30.01,West,270,0.4,2.2,57,0.00,,,0.00,WUHU216HW,2013-09-02 23:22:00,
2013-09-02 18:27:00,72.9,57.2,30.01,WNW,293,0.2,2.2,58,0.00,,,0.00,WUHU216HW,2013-09-02 23:27:00,
2013-09-02 18:32:00,74.7,58.4,30.01,WNW,293,0.0,1.3,57,0.00,,,0.00,WUHU216HW,2013-09-02 23:32:00,
2013-09-02 18:37:00,75.2,58.5,30.01,WNW,293,0.0,0.4,56,0.00,,,0.00,WUHU216HW,2013-09-02 23:37:00,
2013-09-02 18:42:00,76.0,58.6,30.01,SSE,158,0.4,0.7,55,0.00,,,0.00,WUHU216HW,2013-09-02 23:42:00,
2013-09-02 18:47:00,74.9,57.1,30.01,SE,135,0.0,0.9,54,0.00,,,0.00,WUHU216HW,2013-09-02 23:47:00,
2013-09-02 18:52:00,72.0,55.4,30.01,SE,135,0.0,0.9,56,0.00,,,0.00,WUHU216HW,2013-09-02 23:52:00,
2013-09-02 18:57:00,69.7,53.7,30.01,SE,135,0.0,0.2,57,0.00,,,0.00,WUHU216HW,2013-09-02 23:57:00,
2013-09-02 19:02:00,67.7,52.8,30.01,SE,135,0.0,0.0,59,0.00,,,0.00,WUHU216HW,2013-09-03 00:02:00,
2013-09-02 19:07:00,66.2,52.5,30.01,SSW,203,0.0,0.7,61,0.00,,,0.00,WUHU216HW,2013-09-03 00:07:00,
2013-09-02 19:12:00,64.8,51.8,30.01,WNW,293,0.2,0.9,63,0.00,,,0.00,WUHU216HW,2013-09-03 00:12:00,
2013-09-02 19:17:00,64.1,52.0,30.01,West,270,0.0,0.9,65,0.00,,,0.00,WUHU216HW,2013-09-03 00:17:00,
2013-09-02 19:22:00,63.4,51.8,30.01,West,270,0.0,0.7,66,0.00,,,0.00,WUHU216HW,2013-09-03 00:22:00,
2013-09-02 19:27:00,62.6,51.5,30.01,West,270,0.0,0.4,67,0.00,,,0.00,WUHU216HW,2013-09-03 00:27:00,
2013-09-02 19:32:00,61.9,51.3,30.01,West,270,0.0,0.0,68,0.00,,,0.00,WUHU216HW,2013-09-03 00:32:00,
2013-09-02 19:37:00,61.2,51.0,30.01,West,270,0.0,0.0,69,0.00,,,0.00,WUHU216HW,2013-09-03 00:37:00,
2013-09-02 19:42:00,60.5,50.8,30.01,West,270,0.0,0.0,70,0.00,,,0.00,WUHU216HW,2013-09-03 00:42:00,
2013-09-02 19:47:00,59.8,50.4,30.01,West,270,0.0,0.0,71,0.00,,,0.00,WUHU216HW,2013-09-03 00:47:00,
2013-09-02 19:52:00,59.2,50.2,30.00,West,270,0.0,0.0,72,0.00,,,0.00,WUHU216HW,2013-09-03 00:52:00,
2013-09-02 19:57:00,58.7,50.0,30.00,West,270,0.0,0.0,73,0.00,,,0.00,WUHU216HW,2013-09-03 00:57:00,
2013-09-02 20:02:00,58.0,49.7,30.00,West,270,0.0,0.0,74,0.00,,,0.00,WUHU216HW,2013-09-03 01:02:00,
2013-09-02 20:07:00,57.6,49.7,30.00,West,270,0.0,0.0,75,0.00,,,0.00,WUHU216HW,2013-09-03 01:07:00,
2013-09-02 20:12:00,57.2,49.7,30.00,West,270,0.0,0.0,76,0.00,,,0.00,WUHU216HW,2013-09-03 01:12:00,
2013-09-02 20:17:00,56.9,49.3,30.00,West,270,0.0,0.0,76,0.00,,,0.00,WUHU216HW,2013-09-03 01:17:00,
2013-09-02 20:22:00,56.3,49.1,30.00,West,270,0.0,0.0,77,0.00,,,0.00,WUHU216HW,2013-09-03 01:22:00,
2013-09-02 20:27:00,55.8,48.6,30.00,West,270,0.0,0.0,77,0.00,,,0.00,WUHU216HW,2013-09-03 01:27:00,
2013-09-02 20:32:00,55.4,48.6,30.00,West,270,0.0,0.0,78,0.00,,,0.00,WUHU216HW,2013-09-03 01:32:00,
2013-09-02 20:37:00,55.1,48.7,30.00,West,270,0.0,0.0,79,0.00,,,0.00,WUHU216HW,2013-09-03 01:37:00,
2013-09-02 20:42:00,54.7,48.0,30.00,West,270,0.0,0.0,78,0.00,,,0.00,WUHU216HW,2013-09-03 01:42:00,
2013-09-02 20:47:00,54.4,48.0,30.00,West,270,0.0,0.0,79,0.00,,,0.00,WUHU216HW,2013-09-03 01:47:00,
2013-09-02 20:52:00,54.0,48.1,30.00,West,270,0.0,0.0,80,0.00,,,0.00,WUHU216HW,2013-09-03 01:52:00,
2013-09-02 20:57:00,53.6,47.7,30.00,West,270,0.0,0.0,80,0.00,,,0.00,WUHU216HW,2013-09-03 01:57:00,
2013-09-02 21:02:00,53.5,47.8,30.00,West,270,0.0,0.0,81,0.00,,,0.00,WUHU216HW,2013-09-03 02:02:00,
2013-09-02 21:07:00,53.3,47.6,30.01,West,270,0.0,0.0,81,0.00,,,0.00,WUHU216HW,2013-09-03 02:07:00,
2013-09-02 21:12:00,52.9,47.6,30.01,West,270,0.0,0.0,82,0.00,,,0.00,WUHU216HW,2013-09-03 02:12:00,
2013-09-02 21:17:00,52.7,47.4,30.01,West,270,0.0,0.0,82,0.00,,,0.00,WUHU216HW,2013-09-03 02:17:00,
2013-09-02 21:22:00,52.9,47.9,30.01,West,270,0.0,0.2,83,0.00,,,0.00,WUHU216HW,2013-09-03 02:22:00,
2013-09-02 21:27:00,52.6,47.5,30.01,West,270,0.0,0.2,83,0.00,,,0.00,WUHU216HW,2013-09-03 02:27:00,
2013-09-02 21:32:00,52.2,47.2,30.01,West,270,0.0,0.0,83,0.00,,,0.00,WUHU216HW,2013-09-03 02:32:00,
2013-09-02 21:37:00,52.0,47.4,30.01,West,270,0.0,0.0,84,0.00,,,0.00,WUHU216HW,2013-09-03 02:37:00,
2013-09-02 21:42:00,52.0,47.4,30.01,West,270,0.0,0.0,84,0.00,,,0.00,WUHU216HW,2013-09-03 02:42:00,
2013-09-02 21:47:00,51.7,47.0,30.01,West,270,0.0,0.0,84,0.00,,,0.00,WUHU216HW,2013-09-03 02:47:00,
2013-09-02 21:52:00,51.5,46.8,30.01,West,270,0.0,0.0,84,0.00,,,0.00,WUHU216HW,2013-09-03 02:52:00,
2013-09-02 21:57:00,51.3,46.9,30.02,West,270,0.0,0.0,85,0.00,,,0.00,WUHU216HW,2013-09-03 02:57:00,
2013-09-02 22:02:00,51.3,46.9,30.02,West,270,0.0,0.0,85,0.00,,,0.00,WUHU216HW,2013-09-03 03:02:00,
2013-09-02 22:07:00,51.1,46.7,30.02,West,270,0.0,0.0,85,0.00,,,0.00,WUHU216HW,2013-09-03 03:07:00,
2013-09-02 22:12:00,51.1,47.0,30.02,West,270,0.0,0.0,86,0.00,,,0.00,WUHU216HW,2013-09-03 03:12:00,
2013-09-02 22:17:00,50.8,46.6,30.02,West,270,0.0,0.0,86,0.00,,,0.00,WUHU216HW,2013-09-03 03:17:00,
2013-09-02 22:22:00,50.4,46.3,30.02,West,270,0.0,0.0,86,0.00,,,0.00,WUHU216HW,2013-09-03 03:22:00,
2013-09-02 22:27:00,50.0,45.9,30.02,West,270,0.0,0.0,86,0.00,,,0.00,WUHU216HW,2013-09-03 03:27:00,
2013-09-02 22:32:00,50.2,46.1,30.02,West,270,0.0,0.4,86,0.00,,,0.00,WUHU216HW,2013-09-03 03:32:00,
2013-09-02 22:37:00,50.6,46.4,30.02,West,270,0.0,0.4,86,0.00,,,0.00,WUHU216HW,2013-09-03 03:37:00,
2013-09-02 22:42:00,50.6,46.8,30.02,West,270,0.0,0.4,87,0.00,,,0.00,WUHU216HW,2013-09-03 03:42:00,
2013-09-02 22:47:00,50.4,46.3,30.02,West,270,0.0,0.4,86,0.00,,,0.00,WUHU216HW,2013-09-03 03:47:00,
2013-09-02 22:52:00,50.0,46.3,30.02,West,270,0.0,0.0,87,0.00,,,0.00,WUHU216HW,2013-09-03 03:52:00,
2013-09-02 22:57:00,49.9,45.8,30.02,West,270,0.0,0.0,86,0.00,,,0.00,WUHU216HW,2013-09-03 03:57:00,
2013-09-02 23:01:00,49.7,45.6,30.02,West,270,0.0,0.0,86,0.00,,,0.00,WUHU216HW,2013-09-03 04:01:00,
2013-09-02 23:06:00,49.7,45.9,30.02,West,270,0.0,0.0,87,0.00,,,0.00,WUHU216HW,2013-09-03 04:06:00,
2013-09-02 23:11:00,49.7,45.9,30.02,West,270,0.0,0.0,87,0.00,,,0.00,WUHU216HW,2013-09-03 04:11:00,
2013-09-02 23:16:00,49.3,45.5,30.02,West,270,0.0,0.0,87,0.00,,,0.00,WUHU216HW,2013-09-03 04:16:00,
2013-09-02 23:21:00,49.1,45.4,30.02,West,270,0.0,0.0,87,0.00,,,0.00,WUHU216HW,2013-09-03 04:21:00,
2013-09-02 23:26:00,49.1,45.4,30.02,West,270,0.0,0.0,87,0.00,,,0.00,WUHU216HW,2013-09-03 04:26:00,
2013-09-02 23:31:00,49.1,45.4,30.02,West,270,0.0,0.0,87,0.00,,,0.00,WUHU216HW,2013-09-03 04:31:00,
2013-09-02 23:36:00,49.0,45.3,30.02,West,270,0.0,0.0,87,0.00,,,0.00,WUHU216HW,2013-09-03 04:36:00,
2013-09-02 23:41:00,49.0,45.3,30.02,West,270,0.0,0.0,87,0.00,,,0.00,WUHU216HW,2013-09-03 04:41:00,
2013-09-02 23:46:00,49.0,45.3,30.02,West,270,0.0,0.0,87,0.00,,,0.00,WUHU216HW,2013-09-03 04:46:00,
2013-09-02 23:51:00,48.8,45.4,30.02,West,270,0.0,0.0,88,0.00,,,0.00,WUHU216HW,2013-09-03 04:51:00,
2013-09-02 23:56:00,49.0,45.5,30.02,West,270,0.0,0.0,88,0.00,,,0.00,WUHU216HW,2013-09-03 04:56:00,